Flag for Switzerland Weather past 2 weeks in Lausanne, Vaud, Switzerland

Now
44 °F

Quite cool.


Feels Like: 44 °F
Forecast: 36 / 50 °F
Wind: 1 mph from Northeast

Location: Aigle

Current Time: Dec 20, 2014 at 8:47:34 AM

Latest Report: Dec 20, 2014 at 8:00 AM


Visibility: N/A

Pressure: 30.40 "Hg

Humidity: 99%

Dew point: 43 °F

Location of LausanneLocation

Historic Weather in Lausanne — Graph

°F

Lausanne temperature yesterday

Maximum temperature yesterday: 52 °F (at 2:00 PM)
Minimum temperature yesterday: 36 °F (at 3:00 AM)
Average temperature yesterday: 44 °F

Past Weeks' High & Low Weather Summary

 TemperatureHumidityPressure
High56 °F (Dec 13, 1:00 PM)99% (Dec 19, 12:00 AM)30.48 "Hg (Dec 19, 12:00 AM)
Low29 °F (Dec 10, 5:00 AM)39% (Dec 13, 1:00 PM)29.90 "Hg (Dec 13, 2:00 AM)
Average42 °F78%30.15 "Hg
* Reported Dec 5 7:00 AM — Dec 20 7:00 AM, Lausanne, Weather by CustomWeather, © 2014

Note: Actual official high and low records may vary slightly from our data, if they occured in-between our weather recording intervals... More about our weather records

Advertising

Lausanne weather history for previous 24 hours

 ConditionsComfort  
Time TempWeatherWind HumidityBarometerVisibility
7:00 AM
Dec 20
45 °FCool.3 mph97%30.40 "HgN/A
6:00 AM45 °FQuite cool.1 mph97%30.39 "HgN/A
5:00 AM45 °FCool.5 mph97%30.38 "HgN/A
4:00 AM45 °FFog.5 mph97%30.38 "Hg6 mi
3:00 AM46 °FCool.3 mph95%30.38 "HgN/A
2:00 AM45 °FCool.1 mph96%30.37 "HgN/A
1:00 AM46 °FCool.6 mph94%30.37 "HgN/A
12:00 AM48 °FCool.7 mph85%30.37 "HgN/A
11:00 PM
Dec 19
46 °FCool.6 mph92%30.36 "HgN/A
9:00 PM43 °FQuite cool.3 mph96%30.33 "HgN/A
8:00 PM43 °FQuite cool.3 mph95%30.32 "HgN/A
7:00 PM43 °FPassing clouds.2 mph94%30.32 "Hg25 mi
6:00 PM43 °FQuite cool.1 mph96%30.29 "HgN/A
5:00 PM45 °FQuite cool.3 mph93%30.28 "HgN/A
4:00 PM47 °FScattered clouds.1 mph90%30.28 "Hg25 mi
3:00 PM50 °FCool.3 mph78%30.27 "HgN/A
2:00 PM52 °FCool.3 mph73%30.29 "HgN/A
1:00 PM51 °FScattered clouds.6 mph72%30.30 "Hg25 mi
12:00 PM49 °FCool.9 mph79%30.32 "HgN/A
11:00 AM48 °FCool.10 mph81%30.33 "HgN/A
10:00 AM45 °FScattered clouds.9 mph87%30.34 "Hg19 mi
9:00 AM42 °FQuite cool.5 mph94%30.35 "HgN/A
8:00 AM43 °FQuite cool.7 mph90%30.34 "HgN/A
Weather by CustomWeather, © 2014

See weather overviewHow to use our weather pages